Boulder City, NV

10:44 AM PST on November 17, 2019 (GMT -0800)
Boulder City

Weather History for KBVU - September, 2019

Change the Weather History Date:

Monday, September 2, 2019

  Actual Average (KLAS) Record (KLAS)
Temperature  
Mean Temperature 89 °F -  
Max Temperature 100 °F 98 °F 110 °F (1950)
Min Temperature 78 °F 72 °F 56 °F (1964)
Cooling Degree Days 24    
Growing Degree Days 39 (Base 50)    
Moisture  
Dew Point 55 °F    
Average Humidity 33    
Maximum Humidity 54    
Minimum Humidity 20    
Precipitation  
Precipitation 0.00 in - - ()
Sea Level Pressure  
Sea Level Pressure 29.98 in    
Wind  
Wind Speed 11 mph ()    
Max Wind Speed 31 mph    
Max Gust Speed 40 mph    
Visibility 9.8 miles    
Events Thunderstorm    
Averages and records for this station are not official NWS values.
T = Trace of Precipitation, MM = Missing Value Source: Averaged Metar Reports

Daily Weather History Graph

Daily Weather History Graph

Search for Another Location

Airport or City:

Astronomy

Sep. 02, 2019 Rise Set
Actual Time 6:11 AM PDT 7:05 PM PDT
Civil Twilight 5:45 AM PDT 7:31 PM PDT
Nautical Twilight 5:14 AM PDT 8:02 PM PDT
Astronomical Twilight 4:42 AM PDT 8:34 PM PDT
Moon 9:52 AM PDT (9/2) 9:37 PM PDT (9/2)
Length of Visible Light 13h 46m
Length of Day
12h 53m
Waxing Crescent, 16% of the Moon is Illuminated
Sep 2
Waxing Crescent
Sep 5
First Quarter
Sep 13
Full
Sep 21
Last Quarter
Sep 28
New

Hourly Weather History & Observations

Time (PDT) Temp. Heat Index Dew Point Humidity Pressure Visibility Wind Dir Wind Speed Gust Speed Precip Events Conditions
12:15 AM 89.6 °F 88.1 °F 57.2 °F 33% 29.99 in 5.0 mi South 31.1 mph 39.1 mph N/A Thunderstorm Haze
12:35 AM 86.0 °F 85.4 °F 59.0 °F 40% 30.00 in 10.0 mi WSW 25.3 mph 31.1 mph N/A   Mostly Cloudy
12:55 AM 82.4 °F 82.5 °F 59.0 °F 45% 30.02 in 4.0 mi SW 27.6 mph 40.3 mph N/A   Haze
1:15 AM 82.4 °F 82.0 °F 57.2 °F 42% 30.04 in 10.0 mi SW 23.0 mph 34.5 mph N/A   Mostly Cloudy
1:35 AM 82.4 °F 82.0 °F 57.2 °F 42% 30.04 in 10.0 mi SW 9.2 mph - N/A   Scattered Clouds
1:55 AM 80.6 °F 80.8 °F 57.2 °F 45% 30.04 in 10.0 mi SSW 15.0 mph - N/A   Mostly Cloudy
2:15 AM 82.4 °F 81.7 °F 55.4 °F 39% 30.04 in 10.0 mi South 8.1 mph - N/A   Overcast
2:35 AM 82.4 °F 82.5 °F 59.0 °F 45% 30.03 in 10.0 mi SE 15.0 mph - N/A   Scattered Clouds
2:55 AM 80.6 °F 81.1 °F 59.0 °F 48% 30.01 in 10.0 mi SE 20.7 mph - N/A   Clear
3:15 AM 78.8 °F - 60.8 °F 54% 30.02 in 10.0 mi SE 13.8 mph 21.9 mph N/A   Clear
3:35 AM 78.8 °F - 59.0 °F 51% 30.02 in 10.0 mi SE 13.8 mph 23.0 mph N/A   Clear
3:55 AM 80.6 °F 81.1 °F 59.0 °F 48% 30.02 in 10.0 mi SE 9.2 mph 18.4 mph N/A   Clear
4:15 AM 80.6 °F 81.1 °F 59.0 °F 48% 30.01 in 10.0 mi ESE 5.8 mph 12.7 mph N/A   Clear
4:35 AM 80.6 °F 81.1 °F 59.0 °F 48% 30.00 in 10.0 mi East 9.2 mph - N/A   Clear
4:55 AM 80.6 °F 80.8 °F 57.2 °F 45% 30.01 in 10.0 mi ESE 10.4 mph 16.1 mph N/A   Clear
5:15 AM 80.6 °F 80.8 °F 57.2 °F 45% 30.01 in 10.0 mi ENE 3.5 mph - N/A   Clear
5:35 AM 80.6 °F 80.8 °F 57.2 °F 45% 30.01 in 10.0 mi Variable 4.6 mph - N/A   Clear
5:55 AM 78.8 °F - 57.2 °F 47% 30.01 in 10.0 mi NE 6.9 mph - N/A   Clear
6:15 AM 80.6 °F 80.8 °F 57.2 °F 45% 30.01 in 10.0 mi NNE 6.9 mph - N/A   Clear
6:35 AM 80.6 °F 80.8 °F 57.2 °F 45% 30.01 in 10.0 mi NNE 5.8 mph 11.5 mph N/A   Clear
6:55 AM 80.6 °F 80.8 °F 57.2 °F 45% 30.02 in 10.0 mi NE 9.2 mph - N/A   Partly Cloudy
7:15 AM 80.6 °F 80.8 °F 57.2 °F 45% 30.02 in 10.0 mi NE 11.5 mph - N/A   Clear
7:35 AM 82.4 °F 82.0 °F 57.2 °F 42% 29.97 in 10.0 mi North 18.4 mph - N/A   Partly Cloudy
7:55 AM 84.2 °F 83.5 °F 57.2 °F 40% 30.03 in 10.0 mi ENE 8.1 mph 17.3 mph N/A   Clear
8:15 AM 84.2 °F 83.5 °F 57.2 °F 40% 30.03 in 10.0 mi ENE 6.9 mph - N/A   Clear
8:35 AM 84.2 °F 83.5 °F 57.2 °F 40% 30.03 in 10.0 mi East 6.9 mph - N/A   Clear
8:55 AM 86.0 °F 84.5 °F 55.4 °F 35% 30.04 in 10.0 mi SE 5.8 mph - N/A   Clear
9:15 AM 87.8 °F 86.1 °F 55.4 °F 33% 30.05 in 10.0 mi ESE 5.8 mph - N/A   Clear
9:35 AM 87.8 °F 86.1 °F 55.4 °F 33% 30.05 in 10.0 mi ESE 9.2 mph - N/A   Clear
9:55 AM 89.6 °F 87.7 °F 55.4 °F 31% 30.05 in 10.0 mi ESE 10.4 mph - N/A   Clear
10:15 AM 89.6 °F 87.7 °F 55.4 °F 31% 30.05 in 10.0 mi ESE 9.2 mph - N/A   Clear
10:35 AM 93.2 °F 90.8 °F 53.6 °F 26% 30.05 in 10.0 mi East 9.2 mph 15.0 mph N/A   Clear
10:55 AM 93.2 °F 90.8 °F 53.6 °F 26% 30.04 in 10.0 mi Calm Calm 15.0 mph N/A   Clear
11:15 AM 93.2 °F 90.8 °F 53.6 °F 26% 30.04 in 10.0 mi East 8.1 mph - N/A   Clear
11:55 AM 95.0 °F 92.7 °F 53.6 °F 25% 30.03 in 10.0 mi NE 8.1 mph - N/A   Clear
12:15 PM 95.0 °F - 51.8 °F 23% 30.02 in 10.0 mi Variable 4.6 mph 12.7 mph N/A   Clear
12:35 PM 96.8 °F - 51.8 °F 22% 30.02 in 10.0 mi Variable 6.9 mph 13.8 mph N/A   Clear
12:55 PM 96.8 °F - 51.8 °F 22% 30.01 in 10.0 mi Variable 6.9 mph - N/A   Clear
1:15 PM 96.8 °F - 51.8 °F 22% 30.00 in 10.0 mi ENE 5.8 mph 15.0 mph N/A   Clear
1:35 PM 98.6 °F - 51.8 °F 21% 29.99 in 10.0 mi Calm Calm - N/A   Clear
1:55 PM 98.6 °F - 51.8 °F 21% 29.98 in 10.0 mi North 5.8 mph - N/A   Clear
2:15 PM 96.8 °F - 51.8 °F 22% 29.97 in 10.0 mi NE 5.8 mph 11.5 mph N/A   Clear
2:35 PM 98.6 °F - 51.8 °F 21% 29.96 in 10.0 mi Calm Calm - N/A   Clear
2:55 PM 98.6 °F - 51.8 °F 21% 29.95 in 10.0 mi North 6.9 mph - N/A   Clear
3:15 PM 98.6 °F - 51.8 °F 21% 29.94 in 10.0 mi Variable 4.6 mph - N/A   Clear
3:55 PM 100.4 °F - 51.8 °F 20% 29.92 in 10.0 mi ESE 8.1 mph - N/A   Clear
4:15 PM 100.4 °F - 51.8 °F 20% 29.92 in 10.0 mi Calm Calm 11.5 mph N/A   Clear
4:35 PM 100.4 °F - 51.8 °F 20% 29.91 in 10.0 mi NE 8.1 mph - N/A   Clear
4:55 PM 100.4 °F - 51.8 °F 20% 29.90 in 10.0 mi NE 4.6 mph - N/A   Partly Cloudy
5:15 PM 100.4 °F - 51.8 °F 20% 29.90 in 10.0 mi NNW 6.9 mph - N/A   Partly Cloudy
5:35 PM 98.6 °F 96.4 °F 53.6 °F 22% 29.90 in 10.0 mi NE 6.9 mph - N/A   Partly Cloudy
5:55 PM 98.6 °F 96.4 °F 53.6 °F 22% 29.90 in 10.0 mi NE 6.9 mph - N/A   Partly Cloudy
6:15 PM 98.6 °F 96.4 °F 53.6 °F 22% 29.90 in 10.0 mi East 10.4 mph 17.3 mph N/A   Clear
6:35 PM 98.6 °F 96.4 °F 53.6 °F 22% 29.90 in 10.0 mi ESE 10.4 mph - N/A   Clear
6:55 PM 98.6 °F 96.4 °F 53.6 °F 22% 29.91 in 10.0 mi ESE 9.2 mph - N/A   Clear
7:15 PM 96.8 °F 94.4 °F 53.6 °F 23% 29.92 in 10.0 mi SSE 9.2 mph - N/A   Clear
7:35 PM 96.8 °F 94.4 °F 53.6 °F 23% 29.92 in 10.0 mi SSE 9.2 mph - N/A   Clear
7:55 PM 95.0 °F 92.7 °F 53.6 °F 25% 29.93 in 10.0 mi SSE 9.2 mph - N/A   Clear
8:15 PM 95.0 °F 92.7 °F 53.6 °F 25% 29.93 in 10.0 mi SSE 8.1 mph - N/A   Clear
8:35 PM 95.0 °F 92.7 °F 53.6 °F 25% 29.94 in 10.0 mi SE 5.8 mph - N/A   Clear
8:55 PM 93.2 °F 91.3 °F 55.4 °F 28% 29.95 in 10.0 mi SSE 6.9 mph - N/A   Clear
9:15 PM 93.2 °F 91.3 °F 55.4 °F 28% 29.95 in 10.0 mi Calm Calm - N/A   Clear
9:35 PM 89.6 °F 88.9 °F 59.0 °F 36% 29.96 in 10.0 mi North 5.8 mph - N/A   Clear
9:55 PM 91.4 °F 89.4 °F 55.4 °F 29% 29.96 in 10.0 mi Calm Calm - N/A   Clear
10:15 PM 93.2 °F 91.3 °F 55.4 °F 28% 29.96 in 10.0 mi Variable 3.5 mph - N/A   Clear
10:35 PM 89.6 °F 88.1 °F 57.2 °F 33% 29.96 in 10.0 mi Calm Calm - N/A   Clear
10:55 PM 86.0 °F 85.4 °F 59.0 °F 40% 29.96 in 10.0 mi Calm Calm - N/A   Clear
11:15 PM 86.0 °F 85.4 °F 59.0 °F 40% 29.95 in 10.0 mi Calm Calm - N/A   Partly Cloudy
11:35 PM 86.0 °F 84.9 °F 57.2 °F 37% 29.95 in 10.0 mi East 5.8 mph - N/A   Partly Cloudy
11:55 PM 87.8 °F 86.5 °F 57.2 °F 35% 29.95 in 10.0 mi East 4.6 mph - N/A   Partly Cloudy